Location: Ostrava
(49.8330°N, 18.2830°E)
Time: 08:40:32
(UTC+02:00)

ISS - Visible Passes

Search period start: 20 October 2021 00:00
Search period end: 30 October 2021 00:00
Orbit: 417 x 423 km, 51.6° (Epoch: 20 October)

Date Brightness Start Highest point End Pass type
(mag) Time Alt. Az. Time Alt. Az. Time Alt. Az.
21 Oct -0.6 06:15:37 10° SSE 06:16:58 12° SE 06:18:19 10° ESE visible
23 Oct -1.7 06:16:04 10° SSW 06:18:56 26° SE 06:21:48 10° E visible
24 Oct -1.2 05:29:34 11° S 05:31:50 18° SE 05:34:14 10° E visible
25 Oct -0.8 04:44:45 12° SE 04:44:47 12° SE 04:46:13 10° ESE visible
25 Oct -3.1 06:17:46 10° SW 06:21:01 53° SSE 06:24:19 10° ENE visible
26 Oct -2.6 05:32:47 29° S 05:33:49 38° SSE 05:36:59 10° E visible
27 Oct -1.4 04:47:41 22° ESE 04:47:41 22° ESE 04:49:32 10° E visible
27 Oct -3.8 06:20:40 17° WSW 06:23:13 87° NNW 06:26:37 10° ENE visible
28 Oct -3.7 05:35:29 61° SW 05:35:55 74° SSE 05:39:17 10° ENE visible
29 Oct -1.6 04:50:12 27° E 04:50:12 27° E 04:51:57 10° ENE visible
29 Oct -3.6 06:23:11 19° W 06:25:28 64° N 06:28:49 10° ENE visible
